This is the latest recevied weather packets stored in our database for station/object N6GPM. If no packets are shown the sender has not sent any weather packets the latest 10 day(s).
| Time | Temp. | Humidity | Pressure | Rain* | Wind** | Luminosity | Snow |
|---|---|---|---|---|---|---|---|
| 1788444739 | 16.11° C | 77% | 1018.4 hPa | 0 mm | - | 69 W/m² | - |
| 1788444434 | 16.11° C | 78% | 1018.5 hPa | 0 mm | - | 58 W/m² | - |
| 1788444129 | 15.56° C | 79% | 1018.2 hPa | 0 mm | - | 48 W/m² | - |
| 1788443825 | 15.56° C | 79% | 1018.3 hPa | 0 mm | - | 41 W/m² | - |
| 1788443520 | 15.56° C | 80% | 1018.2 hPa | 0 mm | - | 35 W/m² | - |
| 1788443219 | 15° C | 81% | 1018.2 hPa | 0 mm | - | 28 W/m² | - |
| 1788442915 | 15° C | 81% | 1018.3 hPa | 0 mm | - | 21 W/m² | - |
| 1788442613 | 15° C | 82% | 1018 hPa | 0 mm | - | 15 W/m² | - |
| 1788442309 | 15° C | 83% | 1018 hPa | 0 mm | - | 10 W/m² | - |
| 1788442008 | 15° C | 83% | 1018 hPa | 0 mm | - | 6 W/m² | - |
| 1788441703 | 15° C | 84% | 1017.9 hPa | 0 mm | - | 3 W/m² | - |
| 1788441398 | 14.44° C | 85% | 1018.1 hPa | 0 mm | - | 1 W/m² | - |
| 1788441096 | 14.44° C | 85% | 1018.1 hPa | 0 mm | - | 1 W/m² | - |
| 1788440792 | 14.44° C | 85% | 1018.1 hPa | 0 mm | - | 0 W/m² | - |
| 1788440486 | 15° C | 83% | 1017.9 hPa | 0 mm | - | 0 W/m² | - |
| 1788440185 | 15° C | 84% | 1018 hPa | 0 mm | - | 0 W/m² | - |
| 1788439880 | 15° C | 84% | 1018 hPa | 0 mm | - | 0 W/m² | - |
| 1788439579 | 15° C | 83% | 1018 hPa | 0 mm | - | 0 W/m² | - |
| 1788439274 | 15° C | 83% | 1018.2 hPa | 0 mm | - | 0 W/m² | - |
| 1788438968 | 15° C | 84% | 1018.3 hPa | 0 mm | - | 0 W/m² | - |
| 1788438666 | 15° C | 85% | 1018.1 hPa | 0 mm | - | 0 W/m² | - |
| 1788438361 | 15° C | 86% | 1018.2 hPa | 0 mm | - | 0 W/m² | - |
| 1788438061 | 15° C | 86% | 1018.1 hPa | 0 mm | - | 0 W/m² | - |
| 1788437755 | 14.44° C | 86% | 1018.3 hPa | 0 mm | - | 0 W/m² | - |
| 1788437451 | 15° C | 85% | 1017.9 hPa | 0 mm | - | 0 W/m² | - |
* Rain latest hour (hover to see other rain measurements)
** Current wind speed in m/s (hover to see current wind gust speed)